Weather reports worldwide

Advertisment
Vitoria, Spain (8080): temperature & dewpoint: 10.07.2018 18:00:00 - 16.07.2018 18:00:00 (CEST)Vitoria, Spain (8080): wind speed: 10.07.2018 18:00:00 - 16.07.2018 18:00:00 (CEST)Vitoria, Spain (8080): wind direction: 10.07.2018 18:00:00 - 16.07.2018 18:00:00 (CEST)Vitoria, Spain (8080): reduced air pressure: 10.07.2018 18:00:00 - 16.07.2018 18:00:00 (CEST)Vitoria, Spain (8080): visibility: 10.07.2018 18:00:00 - 16.07.2018 18:00:00 (CEST)
Date & Time tt [°C] td [°C] ff [km/h] ff [kn] dd ppp [hPa] vv [km]
16.07.2018 18:00:00 - - - - - - -
16.07.2018 17:00:00 20,2 15,0 21 11 NNW 1020,4 15
16.07.2018 16:00:00 19,4 15,3 16 9 NW 1020,5 -
16.07.2018 15:00:00 19,9 14,9 16 9 NW 1020,1 20
16.07.2018 14:00:00 19,1 14,3 18 10 NW 1020,2 15
16.07.2018 13:00:00 18,1 15,0 18 10 NW 1020,2 -
16.07.2018 12:00:00 18,6 14,0 21 11 NW 1019,6 -
16.07.2018 11:00:00 19,7 13,7 16 9 NW 1018,7 20
16.07.2018 10:00:00 19,1 13,7 11 6 WSW 1018,1 -
16.07.2018 09:00:00 18,1 13,8 4 2 NW 1018,2 15
16.07.2018 08:00:00 16,8 14,7 8 4 SSE 1018,1 15
16.07.2018 07:00:00 16,8 15,0 9 5 ESE 1017,4 -
16.07.2018 06:00:00 17,0 15,5 8 4 SSE 1017,1 -
16.07.2018 05:00:00 17,2 15,7 9 5 WNW 1017,1 12
16.07.2018 04:00:00 17,3 16,2 5 3 W 1017,3 -
16.07.2018 03:00:00 17,4 16,3 8 4 E 1016,8 -
16.07.2018 02:00:00 17,6 16,5 8 4 E 1017,3 6
16.07.2018 01:00:00 17,3 16,3 15 8 NW 1016,8 -
16.07.2018 00:00:00 17,6 16,8 8 4 SSE 1017,6 -
15.07.2018 23:00:00 18,0 16,7 21 11 NNW 1018,0 6
15.07.2018 22:00:00 18,2 16,5 13 7 ENE 1016,7 -
15.07.2018 21:00:00 18,4 17,3 0 0 N 1015,5 -
15.07.2018 20:00:00 18,4 17,4 13 7 NW 1015,1 4,0
15.07.2018 19:00:00 21,0 17,7 35 19 N 1012,3 -
15.07.2018 18:00:00 24,5 19,2 18 10 N 1012,5 -
15.07.2018 17:00:00 25,2 18,2 22 12 NNE 1012,3 9
15.07.2018 16:00:00 26,2 18,8 15 8 N 1012,8 -
15.07.2018 15:00:00 26,9 18,9 15 8 N 1013,0 12
15.07.2018 14:00:00 25,6 18,1 11 6 NE 1014,0 12
15.07.2018 13:00:00 25,0 17,5 8 4 NE 1014,3 -
15.07.2018 12:00:00 23,4 17,8 4 2 NE 1014,9 -
15.07.2018 11:00:00 21,8 17,3 4 2 N 1015,6 8
15.07.2018 10:00:00 20,1 17,2 5 3 NW 1015,9 -
15.07.2018 09:00:00 18,7 17,7 0 0 N 1016,3 5
15.07.2018 08:00:00 17,4 16,8 0 0 N 1016,4 6
15.07.2018 07:00:00 16,8 16,3 5 3 NNE 1016,3 -
15.07.2018 06:00:00 17,8 17,3 4 2 SE 1016,0 -
15.07.2018 05:00:00 18,2 17,5 2 1 NNE 1015,9 10
15.07.2018 04:00:00 18,4 17,1 5 3 W 1016,1 -
15.07.2018 03:00:00 19,3 17,8 5 3 WNW 1016,3 -
15.07.2018 02:00:00 18,7 18,2 0 0 N 1016,6 15
15.07.2018 01:00:00 19,0 18,3 8 4 E 1016,4 -
15.07.2018 00:00:00 19,3 18,6 0 0 N 1016,4 -
14.07.2018 23:00:00 19,9 18,9 4 2 E 1016,0 12
14.07.2018 22:00:00 20,5 19,2 13 7 N 1014,8 -
14.07.2018 21:00:00 22,0 20,5 4 2 ENE 1014,9 -
14.07.2018 20:00:00 22,7 20,9 8 4 NNE 1012,8 15
14.07.2018 19:00:00 23,7 19,9 29 16 WNW 1013,1 -
14.07.2018 18:00:00 27,1 20,4 26 14 NNE 1012,5 -
14.07.2018 17:00:00 29,6 17,8 11 6 NE 1012,7 25
14.07.2018 16:00:00 30,2 18,2 4 2 N 1013,1 -
14.07.2018 15:00:00 28,8 17,3 8 4 NE 1013,9 25
14.07.2018 14:00:00 27,8 18,6 4 2 SE 1014,6 20
14.07.2018 13:00:00 26,3 17,5 4 2 WSW 1015,4 -
14.07.2018 12:00:00 24,2 17,7 0 0 N 1016,1 -
14.07.2018 11:00:00 22,5 17,7 2 1 ENE 1016,8 15
14.07.2018 10:00:00 20,4 17,6 4 2 ESE 1017,1 -
14.07.2018 09:00:00 18,1 17,3 5 3 NE 1017,5 7
14.07.2018 08:00:00 16,2 16,0 4 2 ENE 1017,5 3,0
14.07.2018 07:00:00 14,2 14,0 0 0 N 1017,9 -
14.07.2018 06:00:00 15,3 15,1 0 0 N 1017,5 -
14.07.2018 05:00:00 15,5 15,2 4 2 NNE 1017,2 4,0
14.07.2018 04:00:00 17,2 16,9 8 4 NNW 1017,3 -
14.07.2018 03:00:00 17,6 16,8 0 0 N 1018,1 -
14.07.2018 02:00:00 18,8 18,1 5 3 E 1019,0 8
14.07.2018 01:00:00 19,0 18,2 0 0 N 1019,1 -
14.07.2018 00:00:00 19,2 18,4 4 2 N 1018,6 -
13.07.2018 23:00:00 19,9 18,7 15 8 N 1017,6 10
13.07.2018 22:00:00 20,3 19,1 9 5 NE 1016,8 -
13.07.2018 21:00:00 21,3 19,3 8 4 ENE 1016,0 -
13.07.2018 20:00:00 22,4 18,8 22 12 N 1015,0 20
13.07.2018 19:00:00 23,7 19,5 22 12 NNE 1015,1 -
13.07.2018 18:00:00 24,8 19,8 21 11 NNE 1014,7 -
13.07.2018 17:00:00 25,3 20,0 18 10 NNE 1014,7 20
13.07.2018 16:00:00 26,9 20,1 16 9 NNE 1014,1 -
13.07.2018 15:00:00 27,8 19,7 9 5 NNE 1014,6 12
13.07.2018 14:00:00 26,7 19,2 8 4 NE 1015,2 15
13.07.2018 13:00:00 24,6 18,3 11 6 N 1016,2 -
13.07.2018 12:00:00 22,9 18,3 8 4 ENE 1016,8 -
13.07.2018 11:00:00 20,0 16,0 4 2 N 1017,6 15
13.07.2018 10:00:00 18,4 15,1 2 1 ENE 1018,1 -
13.07.2018 09:00:00 16,1 14,6 0 0 N 1018,7 15
13.07.2018 08:00:00 14,5 13,9 4 2 W 1019,2 15
13.07.2018 07:00:00 13,9 13,5 4 2 WNW 1019,4 -
13.07.2018 06:00:00 13,3 12,7 4 2 NE 1019,4 -
13.07.2018 05:00:00 13,5 13,0 0 0 N 1019,2 20
13.07.2018 04:00:00 12,6 11,9 0 0 N 1019,4 -
13.07.2018 03:00:00 13,6 13,0 0 0 N 1019,5 -
13.07.2018 02:00:00 13,6 12,8 0 0 N 1019,8 20
13.07.2018 01:00:00 14,7 13,4 0 0 N 1019,8 -
13.07.2018 00:00:00 16,0 14,4 4 2 ESE 1019,7 -
12.07.2018 23:00:00 16,8 15,3 9 5 NNE 1019,2 20
12.07.2018 22:00:00 18,3 16,1 18 10 NE 1018,0 -
12.07.2018 21:00:00 20,2 16,6 18 10 NNE 1017,1 -
12.07.2018 20:00:00 21,2 16,5 21 11 NNE 1016,6 25
12.07.2018 19:00:00 22,2 16,1 22 12 NNE 1016,1 -
12.07.2018 18:00:00 23,5 16,0 21 11 NNE 1015,9 -
12.07.2018 17:00:00 23,2 16,3 21 11 NNE 1016,0 25
12.07.2018 16:00:00 24,3 16,3 16 9 N 1016,0 -
12.07.2018 15:00:00 23,2 16,6 21 11 NNE 1016,5 25
12.07.2018 14:00:00 22,4 16,1 18 10 NNE 1016,8 25
12.07.2018 13:00:00 22,2 15,8 18 10 N 1017,0 -
12.07.2018 12:00:00 21,7 16,0 13 7 NNE 1017,0 -
12.07.2018 11:00:00 20,2 15,1 9 5 N 1017,2 20
12.07.2018 10:00:00 19,1 15,1 9 5 N 1017,3 -
12.07.2018 09:00:00 16,8 14,6 8 4 WNW 1017,4 15
12.07.2018 08:00:00 16,5 13,1 4 2 SE 1016,7 15
12.07.2018 07:00:00 16,1 15,5 0 0 N 1016,5 -
12.07.2018 06:00:00 15,5 14,9 0 0 N 1016,2 -
12.07.2018 05:00:00 15,4 14,6 0 0 N 1016,2 15
12.07.2018 04:00:00 16,1 14,8 0 0 N 1016,2 -
12.07.2018 03:00:00 15,5 14,5 2 1 SSW 1016,7 -
12.07.2018 02:00:00 16,3 15,3 4 2 N 1016,8 15
12.07.2018 01:00:00 16,4 14,9 0 0 N 1016,8 -
12.07.2018 00:00:00 18,0 15,5 4 2 N 1016,5 -
11.07.2018 23:00:00 18,4 16,2 4 2 N 1016,2 15
11.07.2018 22:00:00 20,0 16,4 13 7 N 1014,9 -
11.07.2018 21:00:00 21,6 16,8 15 8 N 1014,1 -
11.07.2018 20:00:00 22,4 15,9 16 9 NE 1013,9 30
11.07.2018 19:00:00 23,3 16,6 16 9 ENE 1013,8 -
11.07.2018 18:00:00 23,5 16,1 9 5 NE 1013,7 -
11.07.2018 17:00:00 22,8 15,9 9 5 WNW 1014,1 20
11.07.2018 16:00:00 21,4 16,6 21 11 N 1015,0 -
11.07.2018 15:00:00 25,0 12,9 15 8 NW 1016,5 20
11.07.2018 14:00:00 24,7 15,1 16 9 N 1016,0 20
11.07.2018 13:00:00 23,1 15,3 21 11 NNE 1015,4 -
11.07.2018 12:00:00 22,3 15,9 18 10 NNE 1015,5 -
11.07.2018 11:00:00 20,9 15,8 13 7 NNE 1016,3 15
11.07.2018 10:00:00 19,0 15,2 4 2 NNE 1017,2 -
11.07.2018 09:00:00 16,3 15,0 9 5 NNE 1017,9 6
11.07.2018 08:00:00 13,7 13,2 0 0 N 1018,6 6
11.07.2018 07:00:00 11,6 11,4 0 0 N 1019,0 -
11.07.2018 06:00:00 11,5 11,0 0 0 N 1019,1 -
11.07.2018 05:00:00 12,7 12,4 0 0 N 1019,1 9
11.07.2018 04:00:00 12,9 12,4 0 0 N 1019,2 -
11.07.2018 03:00:00 13,5 12,6 0 0 N 1019,5 -
11.07.2018 02:00:00 14,7 13,6 4 2 N 1019,5 10
11.07.2018 01:00:00 16,3 14,8 2 1 N 1019,2 -
11.07.2018 00:00:00 17,3 15,1 0 0 N 1019,2 -
10.07.2018 23:00:00 18,9 16,2 0 0 N 1018,8 15
10.07.2018 22:00:00 20,6 17,4 13 7 NNE 1018,1 -
10.07.2018 21:00:00 22,8 16,1 15 8 N 1017,5 -
10.07.2018 20:00:00 24,7 14,9 18 10 N 1016,9 20
10.07.2018 19:00:00 25,5 15,6 21 11 N 1016,8 -
10.07.2018 18:00:00 26,2 16,6 22 12 NNE 1016,6 -

tt = temperature
td = dewpoint
ff = wind speed
dd = wind direction
ppp = reduced air pressure
vv = visibility

Next stations